Showing default

JILIN-01 KUANFU 01, 45016

Orbit data source: Space-Track

JILIN-01 KUANFU 01, 45016 is a payload satellite owned by Changguang WJ (CN) in SSO that was launched on Wed, 15 Jan 2020 UTC via a CHANG ZHENG 2D launch vehicle from the Taiyaun Space Center, China (TSC). Payloads include a variety of satellites, spacecraft, and rockets equipped with specific instruments for various scientific and technological missions. These include communications satellites like Starlink; space stations such as the ISS; scientific satellites like the Hubble; Earth observation satellites from companies like Planet Labs, Umbra, and HawkEye 360; GPS; miniature CubeSats for education and research; and military/defense satellites.

Loading next visibility...
JILIN-01 KUANFU 01 details
Identifier
45016, 2020-003A
Orbit
SSO
Last TLE update10 hours ago
Origin
Flag of CNChangguang WJ (CN / PRC)
ManufacturerHARB/CIOMP
MissionOperational Commercial Imaging
Bus & MotorJL-1, Unknown motor
Mass1,250 kg wet, 1,250 kg dry
Launch date (UTC)
2020-01-15 (5 years ago)
Launch vehicle
CHANG ZHENG 2D
Launch site
Taiyaun Space Center, China (TSC)
Object type
Payload
Rocket body
Debris
Shape & HBRBox + 2 Pan, 1.5 m
Radar Cross Section2.000 m², Large (>1 m²)

Expand to show TLE details & history

TLE from 10 hours ago
0 JILIN-01 KUANFU 01
1 45016U 20003A   24348.74748437  .00008229  00000-0  43643-3 0  9990
2 45016  97.5639  60.4273 0010949 217.0383 143.0094 15.15575333272220
Epoch: 2024-12-13T17:56Z
Definitive object data (Epoch: 2024-12-13T17:56:22.649Z)
Latitude-0.00009°
Longitude68.42392°
Altitude528.349 km
Speed7.595 km/s
True Right ascension04h 01m 42s
True Declination0° 00' 00"
Sunlit
Object was in full shadow at TLE epoch
Visualization TLE readout
Latitude61.92509°
Longitude-96.82568°
Altitude530.937 km
Speed7.603 km/s
Apparent Right ascension15h 30m 02s
Apparent Declination14° 29' 56"
Sunlit
Object is in daylight
Visualization observer readout
Local Sidereal Time02:30:36
Azimuth342.606° N
Elevation-33.854°
Doppler factor1
Orbital elements
Apogee altitude523.76 km
Perigee altitude508.662 km
Semi-major axis6,894.348 km
Eccentricity0.0010949
Inclination97.5639°
RAAN60.4273°
Arg. of periapsis217.0383°
True anomaly143.08481°
Mean anomaly143.0094°
Eccentric anomaly143.04711°
Mean motion3.79143 °/min
BSTAR0.00043643
Orbital period94.95 mins
Loading maneuver chart data...
Loading historical data...
Loading historical data...
Loading historical data...
Loading historical data...
Loading historical data...
Loading historical data...
Loading historical data...

JILIN-01 KUANFU 01 Visibility forecast

Observer location: undefined°, undefined

Span
Click to sort rows by Start time (UTC) header in descending order
Start Az.
Max El. time (UTC)
Max El. Az.
Max El.
End time (UTC)
End Az.
7 mins2024-12-14 05:08:47.707Z173.499° S2024-12-14 05:12:47.707Z301.386° NW42.504°2024-12-14 05:15:47.707Z342.89° N
5 mins2024-12-14 18:16:47.707Z349.971° N2024-12-14 18:18:47.707Z300.777° NW34.18°2024-12-14 18:21:47.707Z219.168° SW
|